Miscellaneous Local Product
Issued by NWS Hastings, NE

Home | Current Version | Previous Version | Graphics & Text | Print | Product List | Glossary On
Versions: 1 2 3 4 5 6 7 8 9 10 11 12 13 14 15 16 17 18 19 20 21 22 23 24 25 26 27 28 29 30 31 32 33 34 35 36 37 38 39 40 41 42 43 44 45 46 47 48 49 50
000
AXUS43 KGID 291602
MISGRI

GID CWA HOURLY WEATHER ROUNDUP
NATIONAL WEATHER SERVICE HASTINGS NE
1100 AM CDT WED JUL 29 2015

NOTE: "FAIR" INDICATES FEW OR NO CLOUDS BELOW 12,000 FEET WITH NO
SIGNIFICANT WEATHER AND/OR OBSTRUCTIONS TO VISIBILITY.

...SOUTH CENTRAL NEBRASKA...

CITY           SKY/WX    TMP DP  RH WIND       PRES   REMARKS
GRAND ISLAND   MOSUNNY   77  49  37 CALM      30.26F
HASTINGS       SUNNY     77  53  43 E7        30.26F
KEARNEY        MOSUNNY   75  54  46 CALM      30.27S
ORD            MOSUNNY   75  54  47 SW6       30.25F
YORK           SUNNY     77  57  50 CALM      30.24F
AURORA         MOSUNNY   75  58  55 CALM      30.25F
LEXINGTON      SUNNY     74  53  48 S3        30.28F
HOLDREGE       SUNNY     75  53  46 NE9       30.26F
HEBRON         PTSUNNY   78  58  49 CALM      30.22F

...NEBRASKA PANHANDLE...

CITY           SKY/WX    TMP DP  RH WIND       PRES   REMARKS
CHADRON        SUNNY     72  46  39 SW3       30.30F
ALLIANCE       SUNNY     72  45  37 SE13      30.33F
SCOTTSBLUFF    SUNNY     69  46  43 E13       30.32F
SIDNEY         SUNNY     74  41  30 SE13      30.33F

...WESTERN AND NORTH CENTRAL NEBRASKA...

CITY           SKY/WX    TMP DP  RH WIND       PRES   REMARKS
VALENTINE      SUNNY     78  39  24 W10       30.26F
AINSWORTH      SUNNY     78  44  29 SW10      30.27F
ONEILL         SUNNY     79  48  33 SW8       30.25S
BROKEN BOW     MOSUNNY   77  50  38 CALM      30.28F
IMPERIAL       MOSUNNY   72  49  44 E8        30.30F
NORTH PLATTE   SUNNY     74  52  46 SE6       30.30F
MCCOOK         MOSUNNY   73  54  51 NE8       30.26F

...EASTERN NEBRASKA...

CITY           SKY/WX    TMP DP  RH WIND       PRES   REMARKS
NORFOLK        MOSUNNY   79  53  40 W9        30.21F
SO SIOUX CITY  SUNNY     78  60  53 W9        30.18R
TEKAMAH        SUNNY     80  63  55 W3        30.18F
COLUMBUS       PTSUNNY   75  59  57 W3        30.23S
ALBION         PTSUNNY   77  48  36 SW7       30.24F
OMAHA EPPLEY   MOSUNNY   81  64  56 N5        30.19R
OFFUTT AFB     MOSUNNY   79  61  54 NW7       30.18R
MILLARD        SUNNY     80  59  49 NW8       30.19S
LINCOLN        SUNNY     82  53  36 CALM      30.21F
NEBRASKA CITY  MOSUNNY   74  62  66 N8        30.18F
BEATRICE       SUNNY     80  59  48 N9        30.19F
FALLS CITY     PTSUNNY   79  72  79 N6        30.15S

...NORTHERN KANSAS...

CITY           SKY/WX    TMP DP  RH WIND       PRES   REMARKS
GOODLAND       CLOUDY    72  49  44 E13       30.31R
HILL CITY      PTSUNNY   74  56  53 NE12G21   30.20F
NORTON         SUNNY     75  52  43 NE16      30.22F
PHILLIPSBURG   SUNNY     79  57  47 NE12      30.20F
SMITH CENTER   SUNNY     75  55  50 NE10      30.22F
HAYS           CLOUDY    72  55  56 NE20G29   30.13S
RUSSELL        CLOUDY    70  62  76 N15       30.16R
CONCORDIA      CLOUDY    74  65  73 N10       30.20F
SALINA         CLOUDY    71  63  75 NE15G24   30.13F
TOPEKA         CLOUDY    77  71  82 NE5       30.15R



USA.gov is the U.S. government's official web portal to all federal, state and local government web resources and services.